Location: Godzisko
(49.9648°N, 19.4576°E)
Time: 07:30:41
(UTC+00:00)

ATLAS 2AS CENTAUR R/B - Pass Details

Date: 20 April 2021
Orbit: 949 x 1263 km, 63.7° (Epoch: 02 May)

Event Time Altitude Azimuth Distance (km) Brightness Sun altitude
Rises 02:45:34 0° 316° (NW) 4,104 5.6 -8.7°
Reaches altitude 10° 02:48:30 10° 311° (NW) 3,095 4.9 -8.3°
Maximum altitude 02:55:26 46° 241° (WSW) 1,455 3.0 -7.3°
Drops below altitude 10° 03:01:51 10° 171° (S) 2,860 4.8 -6.4°
Sets 03:04:28 0° 165° (SSE) 3,767 5.5 -6.0°
